Location: Bathurst
(33.4193°S, 149.5775°E)
Time: 09:51:09
(UTC+10:00)

Vanguard 1 Rocket - Pass Details

Date: 15 June 2021
Orbit: 650 x 4226 km, 34.3° (Epoch: 02 August)

Event Time Altitude Azimuth Distance (km) Brightness Sun altitude
Rises 07:24:13 0° 328° (NNW) 8,405 12.3 2.9°
Reaches altitude 10° 07:31:17 10° 335° (NNW) 7,160 12.1 4.2°
Maximum altitude 07:50:23 36° 31° (NNE) 4,078 11.7 7.5°
Drops below altitude 10° 08:02:08 10° 91° (E) 4,501 11.9 9.5°
Sets 08:05:17 0° 100° (E) 5,095 11.9 10.0°
